| time (UTC) | temp F | wind direction | speed knots | gust knots | rain 1hr in | rain 24hr in | rain mn in | humidity % | barometer mb |
| 20260903035912 | 61 | 233 | 1.7 | 8.7 | 0.00 | 0.05 | 0.05 | 68 | 1014.1 |
| 20260903035417 | 60 | 243 | 2.6 | 11.3 | 0.00 | 0.05 | 0.05 | 71 | 1014.0 |
| 20260903035411 | 60 | 227 | 2.6 | 11.3 | 0.00 | 0.05 | 0.05 | 70 | 1014.0 |
| 20260903034413 | 60 | 254 | 1.7 | 9.6 | 0.00 | 0.05 | 0.05 | 75 | 1014.0 |
| 20260903033911 | 59 | 264 | 0.9 | 6.1 | 0.00 | 0.05 | 0.05 | 78 | 1014.1 |
| 20260903033418 | 60 | 253 | 1.7 | 7.8 | 0.00 | 0.05 | 0.05 | 77 | 1014.0 |
| 20260903033412 | 59 | 211 | 0.9 | 4.3 | 0.00 | 0.05 | 0.05 | 77 | 1014.0 |
| 20260903032411 | 60 | 254 | 1.7 | 7.8 | 0.00 | 0.05 | 0.05 | 78 | 1013.9 |
| 20260903031913 | 59 | 185 | 1.7 | 6.1 | 0.00 | 0.05 | 0.05 | 79 | 1014.0 |
| 20260903031411 | 59 | 202 | 0.9 | 6.1 | 0.00 | 0.05 | 0.05 | 81 | 1013.9 |
| 20260903030911 | 59 | 249 | 0.9 | 5.2 | 0.00 | 0.05 | 0.05 | 84 | 1013.9 |
| 20260903030413 | 58 | 303 | 0.9 | 6.1 | 0.00 | 0.05 | 0.05 | 83 | 1013.9 |
| 20260903025912 | 58 | 302 | 1.7 | 7.0 | 0.00 | 0.05 | 0.05 | 82 | 1013.8 |
| 20260903025417 | 58 | 251 | 1.7 | 7.8 | 0.00 | 0.05 | 0.05 | 84 | 1013.8 |
| 20260903025411 | 58 | 284 | 1.7 | 7.8 | 0.00 | 0.05 | 0.05 | 82 | 1013.9 |
| 20260903024412 | 58 | 349 | 1.7 | 8.7 | 0.00 | 0.05 | 0.05 | 87 | 1013.9 |
| 20260903023913 | 57 | 294 | 0.9 | 8.7 | 0.00 | 0.05 | 0.05 | 87 | 1013.9 |
| 20260903023413 | 56 | 307 | 0.9 | 7.0 | 0.01 | 0.05 | 0.05 | 88 | 1013.8 |
| 20260903022911 | 56 | 283 | 0.9 | 7.0 | 0.01 | 0.05 | 0.05 | 88 | 1013.9 |
| 20260903022411 | 55 | 272 | 1.7 | 13.9 | 0.03 | 0.05 | 0.05 | 88 | 1013.9 |
| 20260903021911 | 55 | 254 | 1.7 | 13.9 | 0.03 | 0.05 | 0.05 | 88 | 1014.0 |
| 20260903021411 | 55 | 318 | 1.7 | 8.7 | 0.03 | 0.05 | 0.05 | 88 | 1014.0 |
| 20260903020912 | 55 | 241 | 0.9 | 9.6 | 0.03 | 0.05 | 0.05 | 89 | 1014.0 |
| 20260903020410 | 55 | 237 | 0.9 | 9.6 | 0.03 | 0.05 | 0.05 | 88 | 1013.8 |
| 20260903015909 | 55 | 281 | 0.9 | 9.6 | 0.03 | 0.05 | 0.05 | 88 | 1013.8 |
| 20260903015417 | 55 | 193 | 2.6 | 10.4 | 0.03 | 0.05 | 0.05 | 87 | 1013.8 |
| 20260903015410 | 55 | 277 | 1.7 | 9.6 | 0.03 | 0.05 | 0.05 | 88 | 1013.8 |
| 20260903014410 | 55 | 230 | 3.5 | 10.4 | 0.03 | 0.05 | 0.05 | 86 | 1013.8 |
| 20260903013910 | 56 | 228 | 4.3 | 10.4 | 0.03 | 0.05 | 0.05 | 83 | 1013.7 |
| 20260903013411 | 57 | 206 | 5.2 | 19.1 | 0.02 | 0.04 | 0.04 | 80 | 1013.7 |
| 20260903012908 | 60 | 273 | 5.2 | 19.1 | 0.03 | 0.04 | 0.04 | 74 | 1013.7 |
| 20260903012406 | 62 | 165 | 6.1 | 13.9 | 0.01 | 0.02 | 0.02 | 67 | 1013.1 |
| 20260903011906 | 62 | 299 | 7.0 | 13.9 | 0.01 | 0.02 | 0.02 | 67 | 1012.8 |
| 20260903011405 | 62 | 292 | 7.0 | 16.5 | 0.01 | 0.02 | 0.02 | 68 | 1012.9 |
| 20260903010906 | 61 | 287 | 7.8 | 16.5 | 0.01 | 0.02 | 0.02 | 69 | 1013.0 |
| 20260903010405 | 61 | 287 | 6.1 | 12.2 | 0.01 | 0.02 | 0.02 | 72 | 1013.1 |
| 20260903005903 | 60 | 314 | 5.2 | 13.0 | 0.02 | 0.02 | 0.02 | 73 | 1013.0 |
| 20260903005404 | 60 | 299 | 5.2 | 13.0 | 0.02 | 0.02 | 0.02 | 74 | 1013.0 |
| 20260903004906 | 59 | 307 | 4.3 | 14.8 | 0.02 | 0.02 | 0.02 | 76 | 1013.0 |
| 20260903004900 | 59 | 323 | 5.2 | 14.8 | 0.02 | 0.02 | 0.02 | 75 | 1013.1 |
| 20260903003901 | 58 | 290 | 5.2 | 13.0 | 0.02 | 0.02 | 0.02 | 79 | 1012.9 |
| 20260903003403 | 58 | 300 | 4.3 | 13.0 | 0.02 | 0.02 | 0.02 | 80 | 1012.9 |
| 20260903002901 | 58 | 302 | 1.7 | 11.3 | 0.01 | 0.01 | 0.01 | 82 | 1012.9 |
| 20260903002401 | 58 | 297 | 0.9 | 6.1 | 0.01 | 0.01 | 0.01 | 81 | 1012.9 |
| 20260903001908 | 58 | 310 | 2.6 | 13.0 | 0.01 | 0.01 | 0.01 | 78 | 1012.9 |
| 20260903001902 | 58 | 300 | 0.9 | 6.1 | 0.01 | 0.01 | 0.01 | 79 | 1012.9 |
| 20260903000900 | 58 | 316 | 5.2 | 13.0 | 0.01 | 0.01 | 0.01 | 75 | 1012.9 |
| 20260903000403 | 59 | 308 | 5.2 | 11.3 | 0.01 | 0.01 | 0.01 | 73 | 1013.1 |
| 20260902235901 | 59 | 316 | 5.2 | 11.3 | 0.00 | 0.00 | 0.00 | 70 | 1012.7 |
| 20260902235402 | 59 | 303 | 6.1 | 11.3 | 0.00 | 0.00 | 0.00 | 71 | 1012.6 |
| 20260902234905 | 58 | 316 | 6.1 | 20.0 | 0.00 | 0.00 | 0.00 | 71 | 1012.6 |
| 20260902234859 | 58 | 298 | 6.1 | 20.0 | 0.00 | 0.00 | 0.00 | 71 | 1012.7 |
| 20260902233859 | 58 | 328 | 5.2 | 11.3 | 0.00 | 0.00 | 0.00 | 70 | 1012.5 |
| 20260902233358 | 58 | 356 | 4.3 | 10.4 | 0.00 | 0.00 | 0.00 | 70 | 1012.5 |
| 20260902232900 | 57 | 337 | 4.3 | 10.4 | 0.00 | 0.00 | 0.00 | 70 | 1012.4 |
| 20260902232359 | 57 | 1 | 3.5 | 7.8 | 0.00 | 0.00 | 0.00 | 70 | 1012.2 |
| 20260902231900 | 57 | 351 | 3.5 | 10.4 | 0.00 | 0.00 | 0.00 | 70 | 1012.2 |
| 20260902231359 | 57 | 333 | 4.3 | 13.0 | 0.00 | 0.00 | 0.00 | 70 | 1012.2 |
| 20260902230857 | 56 | 350 | 4.3 | 13.0 | 0.00 | 0.00 | 0.00 | 70 | 1012.2 |
| 20260902230357 | 56 | 341 | 4.3 | 12.2 | 0.00 | 0.00 | 0.00 | 70 | 1012.2 |
| 20260902225857 | 56 | 351 | 4.3 | 12.2 | 0.00 | 0.00 | 0.00 | 70 | 1012.1 |
| 20260902225358 | 56 | 2 | 5.2 | 14.8 | 0.00 | 0.00 | 0.00 | 70 | 1012.1 |
| 20260902224858 | 56 | 351 | 5.2 | 14.8 | 0.00 | 0.00 | 0.00 | 70 | 1011.9 |
| 20260902224357 | 56 | 358 | 4.3 | 13.9 | 0.00 | 0.00 | 0.00 | 70 | 1011.9 |
| 20260902223905 | 56 | 335 | 4.3 | 9.6 | 0.00 | 0.00 | 0.00 | 70 | 1011.9 |
| 20260902223857 | 56 | 4 | 4.3 | 9.6 | 0.00 | 0.00 | 0.00 | 71 | 1011.9 |
| 20260902222900 | 56 | 333 | 4.3 | 9.6 | 0.00 | 0.00 | 0.00 | 70 | 1011.9 |
| 20260902222357 | 56 | 356 | 4.3 | 10.4 | 0.00 | 0.00 | 0.00 | 70 | 1011.8 |
| 20260902221856 | 56 | 353 | 4.3 | 10.4 | 0.00 | 0.00 | 0.00 | 70 | 1011.8 |
| 20260902221354 | 56 | 13 | 3.5 | 8.7 | 0.00 | 0.00 | 0.00 | 70 | 1011.8 |
| 20260902220856 | 56 | 340 | 3.5 | 7.0 | 0.00 | 0.00 | 0.00 | 71 | 1011.9 |
| 20260902220354 | 55 | 347 | 2.6 | 7.0 | 0.00 | 0.00 | 0.00 | 71 | 1011.8 |
| 20260902215854 | 55 | 351 | 2.6 | 5.2 | 0.00 | 0.00 | 0.00 | 71 | 1011.8 |
| 20260902215355 | 55 | 345 | 2.6 | 6.1 | 0.00 | 0.00 | 0.00 | 71 | 1011.8 |
| 20260902214855 | 55 | 349 | 2.6 | 6.1 | 0.00 | 0.00 | 0.00 | 71 | 1011.8 |
| 20260902214355 | 55 | 359 | 1.7 | 6.1 | 0.00 | 0.00 | 0.00 | 72 | 1011.7 |
| 20260902213853 | 54 | 333 | 1.7 | 4.3 | 0.00 | 0.00 | 0.00 | 72 | 1011.7 |
| 20260902213351 | 54 | 333 | 1.7 | 4.3 | 0.00 | 0.00 | 0.00 | 73 | 1011.6 |
| 20260902212850 | 54 | 332 | 1.7 | 5.2 | 0.00 | 0.00 | 0.00 | 73 | 1011.5 |
| 20260902212350 | 53 | 331 | 0.9 | 5.2 | 0.00 | 0.00 | 0.00 | 73 | 1011.3 |
| 20260902211851 | 53 | 329 | 0.9 | 4.3 | 0.00 | 0.00 | 0.00 | 74 | 1011.2 |
| 20260902211348 | 53 | 329 | 0.9 | 4.3 | 0.00 | 0.00 | 0.00 | 73 | 1011.3 |
| 20260902210848 | 52 | 329 | 0.9 | 4.3 | 0.00 | 0.00 | 0.00 | 73 | 1011.2 |
| 20260902210348 | 52 | 329 | 0.9 | 4.3 | 0.00 | 0.00 | 0.00 | 73 | 1011.1 |
| 20260902205849 | 52 | 329 | 0.9 | 4.3 | 0.00 | 0.00 | 0.00 | 72 | 1011.0 |
| 20260902205347 | 52 | 329 | 1.7 | 4.3 | 0.00 | 0.00 | 0.00 | 72 | 1010.9 |
| 20260902204848 | 53 | 329 | 1.7 | 4.3 | 0.00 | 0.00 | 0.00 | 71 | 1010.7 |
| 20260902204346 | 53 | 328 | 1.7 | 4.3 | 0.00 | 0.00 | 0.00 | 70 | 1010.7 |
| 20260902203846 | 54 | 328 | 2.6 | 9.6 | 0.00 | 0.00 | 0.00 | 69 | 1010.7 |
| 20260902203344 | 54 | 320 | 3.5 | 9.6 | 0.00 | 0.00 | 0.00 | 69 | 1010.6 |
| 20260902202844 | 54 | 342 | 3.5 | 7.8 | 0.00 | 0.00 | 0.00 | 69 | 1010.6 |
| 20260902202345 | 54 | 335 | 3.5 | 8.7 | 0.00 | 0.00 | 0.00 | 69 | 1010.6 |
| 20260902201845 | 54 | 321 | 3.5 | 8.7 | 0.00 | 0.00 | 0.00 | 69 | 1010.6 |
| 20260902201350 | 54 | 326 | 3.5 | 8.7 | 0.00 | 0.00 | 0.00 | 69 | 1010.6 |
| 20260902201344 | 54 | 333 | 3.5 | 7.8 | 0.00 | 0.00 | 0.00 | 69 | 1010.6 |
| 20260902200344 | 53 | 331 | 3.5 | 8.7 | 0.00 | 0.00 | 0.00 | 70 | 1010.7 |
| 20260902195844 | 53 | 351 | 3.5 | 7.0 | 0.00 | 0.00 | 0.00 | 70 | 1010.7 |
| 20260902195344 | 53 | 343 | 2.6 | 6.1 | 0.00 | 0.00 | 0.00 | 70 | 1010.7 |
| 20260902194844 | 53 | 347 | 2.6 | 7.8 | 0.00 | 0.00 | 0.00 | 70 | 1010.7 |
| 20260902194350 | 52 | 335 | 1.7 | 6.1 | 0.00 | 0.00 | 0.00 | 70 | 1010.6 |
| 20260902194344 | 53 | 345 | 2.6 | 7.8 | 0.00 | 0.00 | 0.00 | 70 | 1010.6 |
| 20260902193346 | 52 | 334 | 2.6 | 6.1 | 0.00 | 0.00 | 0.00 | 70 | 1010.7 |
| 20260902192845 | 52 | 327 | 3.5 | 6.1 | 0.00 | 0.00 | 0.00 | 70 | 1010.7 |
| 20260902192344 | 52 | 339 | 2.6 | 7.0 | 0.00 | 0.00 | 0.00 | 70 | 1010.7 |
| 20260902191849 | 52 | 347 | 1.7 | 4.3 | 0.00 | 0.00 | 0.00 | 70 | 1010.6 |
| 20260902191843 | 52 | 350 | 1.7 | 7.0 | 0.00 | 0.00 | 0.00 | 70 | 1010.5 |
| 20260902190845 | 53 | 347 | 1.7 | 3.5 | 0.00 | 0.00 | 0.00 | 69 | 1010.5 |
| 20260902190344 | 53 | 347 | 1.7 | 3.5 | 0.00 | 0.00 | 0.00 | 69 | 1010.3 |
| 20260902185853 | 53 | 350 | 3.5 | 6.1 | 0.00 | 0.00 | 0.00 | 68 | 1010.3 |
| 20260902185844 | 53 | 347 | 2.6 | 6.1 | 0.00 | 0.00 | 0.00 | 68 | 1010.3 |
| 20260902185346 | 53 | 347 | 3.5 | 6.1 | 0.00 | 0.00 | 0.00 | 68 | 1010.3 |
| 20260902185013 | 53 | 351 | 2.6 | 4.3 | 0.00 | 0.00 | 0.00 | 68 | 1010.2 |
| 20260902183844 | 54 | 351 | 2.6 | 5.2 | 0.00 | 0.00 | 0.00 | 67 | 1010.1 |
| 20260902183344 | 54 | 351 | 2.6 | 6.1 | 0.00 | 0.00 | 0.00 | 67 | 1010.2 |
| 20260902182844 | 54 | 345 | 2.6 | 6.1 | 0.00 | 0.00 | 0.00 | 66 | 1010.2 |
| 20260902182342 | 54 | 345 | 2.6 | 5.2 | 0.00 | 0.00 | 0.00 | 66 | 1010.1 |
| 20260902181843 | 55 | 349 | 3.5 | 8.7 | 0.00 | 0.00 | 0.00 | 65 | 1010.0 |
| 20260902181349 | 55 | 316 | 3.5 | 7.8 | 0.00 | 0.00 | 0.00 | 64 | 1010.0 |
| 20260902181342 | 55 | 333 | 3.5 | 8.7 | 0.00 | 0.00 | 0.00 | 64 | 1009.9 |
| 20260902180839 | 55 | 335 | 3.5 | 8.7 | 0.00 | 0.00 | 0.00 | 64 | 1009.9 |
| 20260902180511 | 55 | 4 | 4.3 | 13.9 | 0.00 | 0.00 | 0.00 | 64 | 1010.0 |
| 20260902175338 | 55 | 297 | 4.3 | 13.9 | 0.00 | 0.00 | 0.00 | 64 | 1010.0 |
| 20260902174837 | 55 | 0 | 3.5 | 7.8 | 0.00 | 0.00 | 0.00 | 65 | 1010.1 |
| 20260902174343 | 54 | 318 | 3.5 | 9.6 | 0.00 | 0.00 | 0.00 | 66 | 1010.2 |
| 20260902174337 | 54 | 317 | 3.5 | 9.6 | 0.00 | 0.00 | 0.00 | 65 | 1010.2 |
| 20260902173341 | 54 | 339 | 2.6 | 6.1 | 0.00 | 0.00 | 0.00 | 67 | 1010.3 |
| 20260902173335 | 54 | 339 | 2.6 | 6.1 | 0.00 | 0.00 | 0.00 | 67 | 1010.1 |
| 20260902172834 | 54 | 333 | 2.6 | 7.8 | 0.00 | 0.00 | 0.00 | 67 | 1010.3 |
| 20260902171834 | 54 | 348 | 2.6 | 7.8 | 0.00 | 0.00 | 0.00 | 67 | 1010.4 |
| 20260902171341 | 54 | 326 | 2.6 | 6.1 | 0.00 | 0.00 | 0.00 | 67 | 1010.5 |
| 20260902171335 | 54 | 351 | 2.6 | 7.0 | 0.00 | 0.00 | 0.00 | 67 | 1010.5 |
| 20260902170341 | 54 | 316 | 1.7 | 3.5 | 0.00 | 0.00 | 0.00 | 67 | 1010.6 |
| 20260902170335 | 54 | 318 | 1.7 | 6.1 | 0.00 | 0.00 | 0.00 | 67 | 1010.5 |
| 20260902165332 | 55 | 316 | 1.7 | 6.1 | 0.00 | 0.00 | 0.00 | 66 | 1010.6 |
| 20260902164834 | 55 | 314 | 2.6 | 7.0 | 0.00 | 0.00 | 0.00 | 65 | 1010.6 |
| 20260902164332 | 55 | 316 | 3.5 | 7.0 | 0.00 | 0.00 | 0.00 | 65 | 1010.7 |
| 20260902163832 | 55 | 344 | 2.6 | 7.0 | 0.00 | 0.00 | 0.00 | 65 | 1010.8 |
| 20260902163331 | 55 | 351 | 2.6 | 6.1 | 0.00 | 0.00 | 0.00 | 66 | 1010.9 |
| 20260902162832 | 55 | 322 | 2.6 | 6.1 | 0.00 | 0.00 | 0.00 | 66 | 1010.9 |
| 20260902162333 | 55 | 331 | 3.5 | 7.0 | 0.00 | 0.00 | 0.00 | 66 | 1011.0 |
| 20260902161832 | 55 | 339 | 2.6 | 7.0 | 0.00 | 0.00 | 0.00 | 66 | 1011.1 |
| 20260902161332 | 55 | 309 | 3.5 | 7.8 | 0.00 | 0.00 | 0.00 | 66 | 1011.1 |
| 20260902160832 | 55 | 307 | 3.5 | 8.7 | 0.00 | 0.00 | 0.00 | 66 | 1011.2 |
| 20260902160332 | 55 | 357 | 3.5 | 10.4 | 0.00 | 0.00 | 0.00 | 66 | 1011.2 |
| 20260902155830 | 55 | 289 | 4.3 | 10.4 | 0.00 | 0.00 | 0.00 | 67 | 1011.2 |
| 20260902155330 | 55 | 292 | 4.3 | 8.7 | 0.00 | 0.00 | 0.00 | 67 | 1011.3 |
| 20260902154829 | 54 | 300 | 3.5 | 8.7 | 0.00 | 0.00 | 0.00 | 68 | 1011.2 |
| 20260902154331 | 54 | 305 | 3.5 | 8.7 | 0.00 | 0.00 | 0.00 | 69 | 1011.1 |
| 20260902153829 | 54 | 319 | 3.5 | 7.0 | 0.00 | 0.00 | 0.00 | 69 | 1011.2 |
| 20260902153331 | 54 | 298 | 3.5 | 7.0 | 0.00 | 0.00 | 0.00 | 69 | 1011.3 |
| 20260902152836 | 54 | 324 | 2.6 | 7.0 | 0.00 | 0.00 | 0.00 | 69 | 1011.4 |
| 20260902152830 | 54 | 333 | 2.6 | 7.0 | 0.00 | 0.00 | 0.00 | 69 | 1011.3 |
| 20260902151831 | 54 | 323 | 1.7 | 6.1 | 0.00 | 0.00 | 0.00 | 69 | 1011.4 |
| 20260902151327 | 54 | 322 | 1.7 | 6.1 | 0.00 | 0.00 | 0.00 | 69 | 1011.3 |
| 20260902150829 | 54 | 327 | 1.7 | 6.1 | 0.00 | 0.00 | 0.00 | 69 | 1011.3 |
| 20260902150328 | 54 | 318 | 2.6 | 4.3 | 0.00 | 0.00 | 0.00 | 69 | 1011.3 |
| 20260902145827 | 54 | 320 | 1.7 | 5.2 | 0.00 | 0.00 | 0.00 | 69 | 1011.3 |
| 20260902145328 | 54 | 343 | 1.7 | 5.2 | 0.00 | 0.00 | 0.00 | 69 | 1011.3 |
| 20260902144833 | 54 | 341 | 2.6 | 7.8 | 0.00 | 0.00 | 0.00 | 69 | 1011.3 |
| 20260902144827 | 54 | 335 | 2.6 | 7.8 | 0.00 | 0.00 | 0.00 | 69 | 1011.4 |
| 20260902143829 | 54 | 343 | 1.7 | 7.0 | 0.00 | 0.00 | 0.00 | 68 | 1011.3 |
| 20260902143335 | 54 | 327 | 2.6 | 5.2 | 0.00 | 0.00 | 0.00 | 68 | 1011.3 |
| 20260902143329 | 54 | 328 | 1.7 | 5.2 | 0.00 | 0.00 | 0.00 | 68 | 1011.2 |
| 20260902142951 | 54 | 312 | 1.7 | 4.3 | 0.00 | 0.00 | 0.00 | 68 | 1011.4 |
| 20260902141823 | 54 | 314 | 1.7 | 7.0 | 0.00 | 0.00 | 0.00 | 68 | 1011.5 |
| 20260902141323 | 54 | 314 | 2.6 | 7.0 | 0.00 | 0.00 | 0.00 | 69 | 1011.5 |
| 20260902140822 | 54 | 333 | 1.7 | 5.2 | 0.00 | 0.00 | 0.00 | 69 | 1011.5 |
| 20260902140323 | 54 | 335 | 0.9 | 4.3 | 0.00 | 0.00 | 0.00 | 69 | 1011.5 |
| 20260902135819 | 54 | 334 | 0.9 | 4.3 | 0.00 | 0.00 | 0.00 | 68 | 1011.5 |
| 20260902135321 | 54 | 334 | 1.7 | 4.3 | 0.00 | 0.00 | 0.00 | 68 | 1011.6 |
| 20260902134819 | 54 | 334 | 1.7 | 4.3 | 0.00 | 0.00 | 0.00 | 67 | 1011.7 |
| 20260902134320 | 55 | 334 | 1.7 | 4.3 | 0.00 | 0.00 | 0.00 | 66 | 1011.6 |
| 20260902133820 | 55 | 333 | 1.7 | 5.2 | 0.00 | 0.00 | 0.00 | 66 | 1011.7 |
| 20260902133319 | 55 | 333 | 1.7 | 5.2 | 0.00 | 0.00 | 0.00 | 65 | 1011.7 |
| 20260902132817 | 55 | 330 | 1.7 | 7.0 | 0.00 | 0.00 | 0.00 | 64 | 1011.7 |
| 20260902132318 | 55 | 329 | 1.7 | 7.0 | 0.00 | 0.00 | 0.00 | 63 | 1011.8 |
| 20260902131814 | 55 | 308 | 1.7 | 3.5 | 0.00 | 0.00 | 0.00 | 63 | 1011.9 |
| 20260902131315 | 56 | 307 | 1.7 | 4.3 | 0.00 | 0.00 | 0.00 | 63 | 1012.0 |
| 20260902130815 | 56 | 307 | 2.6 | 6.1 | 0.00 | 0.00 | 0.00 | 63 | 1012.1 |
| 20260902130316 | 56 | 306 | 2.6 | 6.1 | 0.00 | 0.00 | 0.00 | 62 | 1012.1 |
| 20260902125814 | 56 | 322 | 2.6 | 6.1 | 0.00 | 0.00 | 0.00 | 62 | 1012.1 |
| 20260902125316 | 56 | 340 | 3.5 | 10.4 | 0.00 | 0.00 | 0.00 | 61 | 1012.2 |
| 20260902124816 | 56 | 314 | 3.5 | 10.4 | 0.00 | 0.00 | 0.00 | 61 | 1012.3 |
| 20260902124315 | 56 | 337 | 3.5 | 7.0 | 0.00 | 0.00 | 0.00 | 61 | 1012.3 |
| 20260902123814 | 56 | 335 | 4.3 | 7.8 | 0.00 | 0.00 | 0.00 | 61 | 1012.3 |
| 20260902123315 | 56 | 322 | 4.3 | 9.6 | 0.00 | 0.00 | 0.00 | 60 | 1012.4 |
| 20260902122812 | 56 | 303 | 4.3 | 9.6 | 0.00 | 0.00 | 0.00 | 60 | 1012.4 |
| 20260902122312 | 56 | 339 | 4.3 | 9.6 | 0.00 | 0.00 | 0.00 | 60 | 1012.5 |
| 20260902121813 | 56 | 321 | 4.3 | 9.6 | 0.00 | 0.00 | 0.00 | 60 | 1012.6 |
| 20260902121319 | 56 | 316 | 4.3 | 10.4 | 0.00 | 0.00 | 0.00 | 60 | 1012.6 |
| 20260902121313 | 57 | 325 | 4.3 | 9.6 | 0.00 | 0.00 | 0.00 | 60 | 1012.6 |
| 20260902120314 | 57 | 308 | 4.3 | 10.4 | 0.00 | 0.00 | 0.00 | 60 | 1012.6 |
| 20260902115813 | 56 | 300 | 3.5 | 9.6 | 0.00 | 0.00 | 0.00 | 61 | 1012.7 |
| 20260902115314 | 57 | 331 | 3.5 | 7.0 | 0.00 | 0.00 | 0.00 | 60 | 1012.7 |
| 20260902114813 | 57 | 330 | 4.3 | 8.7 | 0.00 | 0.00 | 0.00 | 60 | 1012.7 |
| 20260902114314 | 57 | 302 | 3.5 | 12.2 | 0.00 | 0.00 | 0.00 | 60 | 1012.7 |
| 20260902113811 | 57 | 312 | 3.5 | 12.2 | 0.00 | 0.00 | 0.00 | 60 | 1012.6 |
| 20260902113316 | 57 | 322 | 4.3 | 7.8 | 0.00 | 0.00 | 0.00 | 60 | 1012.7 |
| 20260902113310 | 57 | 316 | 4.3 | 8.7 | 0.00 | 0.00 | 0.00 | 60 | 1012.6 |
| 20260902112940 | 57 | 305 | 5.2 | 12.2 | 0.00 | 0.00 | 0.00 | 61 | 1012.8 |
| 20260902112500 | 58 | 299 | 4.3 | 12.2 | 0.00 | 0.00 | 0.00 | 61 | 1012.7 |
| 20260902111311 | 58 | 337 | 4.3 | 12.2 | 0.00 | 0.00 | 0.00 | 62 | 1012.8 |
| 20260902110809 | 58 | 303 | 6.1 | 13.0 | 0.00 | 0.00 | 0.00 | 62 | 1012.8 |
| 20260902110310 | 58 | 299 | 6.1 | 13.0 | 0.00 | 0.00 | 0.00 | 62 | 1012.8 |
| 20260902105808 | 58 | 319 | 4.3 | 12.2 | 0.00 | 0.00 | 0.00 | 64 | 1012.8 |
| 20260902105308 | 58 | 318 | 2.6 | 12.2 | 0.00 | 0.00 | 0.00 | 67 | 1012.8 |
| 20260902104810 | 57 | 341 | 1.7 | 9.6 | 0.00 | 0.00 | 0.00 | 68 | 1012.7 |
| 20260902104314 | 57 | 270 | 0.9 | 5.2 | 0.00 | 0.00 | 0.00 | 69 | 1012.7 |
| 20260902104308 | 57 | 296 | 0.9 | 9.6 | 0.00 | 0.00 | 0.00 | 69 | 1012.7 |
| 20260902103311 | 57 | 272 | 0.9 | 5.2 | 0.00 | 0.00 | 0.00 | 70 | 1012.7 |
| 20260902102815 | 57 | 165 | 0.0 | 0.0 | 0.00 | 0.00 | 0.00 | 71 | 1012.7 |
| 20260902102809 | 57 | 166 | 0.0 | 1.7 | 0.00 | 0.00 | 0.00 | 71 | 1012.8 |
| 20260902101814 | 57 | 165 | 0.0 | 0.0 | 0.00 | 0.00 | 0.00 | 71 | 1012.7 |
| 20260902101808 | 57 | 165 | 0.0 | 0.0 | 0.00 | 0.00 | 0.00 | 71 | 1012.7 |
| 20260902101433 | 57 | 165 | 0.0 | 0.0 | 0.00 | 0.00 | 0.00 | 72 | 1012.8 |
| 20260902100308 | 57 | 165 | 0.0 | 0.0 | 0.00 | 0.00 | 0.00 | 71 | 1012.7 |
| 20260902095808 | 57 | 165 | 0.0 | 0.0 | 0.00 | 0.00 | 0.00 | 71 | 1012.7 |
| 20260902095307 | 57 | 165 | 0.0 | 0.0 | 0.00 | 0.00 | 0.00 | 71 | 1012.6 |
| 20260902094806 | 56 | 165 | 0.0 | 0.0 | 0.00 | 0.00 | 0.00 | 71 | 1012.6 |
| 20260902094307 | 56 | 165 | 0.0 | 0.0 | 0.00 | 0.00 | 0.00 | 71 | 1012.5 |
| 20260902093812 | 56 | 165 | 0.0 | 0.9 | 0.00 | 0.00 | 0.00 | 71 | 1012.3 |
| 20260902093806 | 56 | 165 | 0.0 | 0.9 | 0.00 | 0.00 | 0.00 | 71 | 1012.5 |
| 20260902093305 | 56 | 165 | 0.0 | 0.9 | 0.00 | 0.00 | 0.00 | 71 | 1012.4 |
| 20260902092306 | 56 | 165 | 0.0 | 0.0 | 0.00 | 0.00 | 0.00 | 71 | 1012.3 |
| 20260902091804 | 56 | 165 | 0.0 | 0.0 | 0.00 | 0.00 | 0.00 | 71 | 1012.3 |
| 20260902091304 | 56 | 165 | 0.0 | 0.0 | 0.00 | 0.00 | 0.00 | 70 | 1012.2 |
| 20260902090807 | 56 | 165 | 0.0 | 0.0 | 0.00 | 0.00 | 0.00 | 70 | 1012.2 |
| 20260902090310 | 56 | 165 | 0.0 | 0.0 | 0.00 | 0.00 | 0.00 | 69 | 1012.2 |
| 20260902090305 | 56 | 165 | 0.0 | 0.9 | 0.00 | 0.00 | 0.00 | 70 | 1012.1 |
| 20260902085805 | 56 | 165 | 0.0 | 0.9 | 0.00 | 0.00 | 0.00 | 69 | 1012.1 |
| 20260902084804 | 56 | 165 | 0.0 | 0.9 | 0.00 | 0.00 | 0.00 | 69 | 1012.2 |
| 20260902084304 | 56 | 165 | 0.0 | 0.9 | 0.00 | 0.00 | 0.00 | 69 | 1012.1 |
| 20260902083804 | 57 | 165 | 0.0 | 0.9 | 0.00 | 0.00 | 0.00 | 69 | 1012.0 |
| 20260902083304 | 57 | 165 | 0.0 | 0.0 | 0.00 | 0.00 | 0.00 | 69 | 1012.1 |
| 20260902082806 | 57 | 165 | 0.0 | 0.0 | 0.00 | 0.00 | 0.00 | 68 | 1012.1 |
| 20260902082309 | 57 | 165 | 0.0 | 0.9 | 0.00 | 0.00 | 0.00 | 68 | 1012.1 |
| 20260902081811 | 57 | 165 | 0.0 | 0.9 | 0.00 | 0.00 | 0.00 | 67 | 1012.1 |
| 20260902081806 | 57 | 165 | 0.0 | 0.9 | 0.00 | 0.00 | 0.00 | 68 | 1012.1 |
| 20260902080811 | 58 | 165 | 0.9 | 1.7 | 0.00 | 0.00 | 0.00 | 66 | 1011.9 |
| 20260902080806 | 57 | 165 | 0.0 | 1.7 | 0.00 | 0.00 | 0.00 | 67 | 1012.1 |
| 20260902075806 | 58 | 165 | 0.0 | 1.7 | 0.00 | 0.00 | 0.00 | 66 | 1011.9 |
| 20260902075306 | 58 | 165 | 0.0 | 1.7 | 0.00 | 0.00 | 0.00 | 66 | 1011.9 |
| 20260902074805 | 58 | 165 | 0.0 | 2.6 | 0.00 | 0.00 | 0.00 | 65 | 1011.9 |
| 20260902074304 | 58 | 165 | 0.0 | 2.6 | 0.00 | 0.00 | 0.00 | 65 | 1011.9 |
| 20260902073804 | 58 | 165 | 0.0 | 2.6 | 0.00 | 0.00 | 0.00 | 65 | 1011.9 |
| 20260902073303 | 58 | 165 | 0.9 | 2.6 | 0.00 | 0.00 | 0.00 | 65 | 1011.9 |
| 20260902072804 | 58 | 165 | 0.9 | 2.6 | 0.00 | 0.00 | 0.00 | 65 | 1011.9 |
| 20260902072310 | 58 | 166 | 0.9 | 3.5 | 0.00 | 0.00 | 0.00 | 64 | 1011.9 |
| 20260902071311 | 59 | 185 | 0.9 | 5.2 | 0.00 | 0.00 | 0.00 | 64 | 1011.9 |
| 20260902071306 | 59 | 185 | 0.9 | 3.5 | 0.00 | 0.00 | 0.00 | 65 | 1011.9 |
| 20260902070304 | 59 | 185 | 0.9 | 5.2 | 0.00 | 0.00 | 0.00 | 64 | 1012.0 |
| 20260902065802 | 59 | 190 | 0.9 | 3.5 | 0.00 | 0.00 | 0.00 | 64 | 1012.0 |
| 20260902065301 | 60 | 191 | 1.7 | 3.5 | 0.00 | 0.00 | 0.00 | 63 | 1012.0 |
| 20260902064802 | 60 | 158 | 1.7 | 7.0 | 0.00 | 0.00 | 0.00 | 63 | 1012.0 |
| 20260902064303 | 60 | 160 | 1.7 | 7.0 | 0.00 | 0.00 | 0.00 | 63 | 1012.0 |
| 20260902063803 | 60 | 185 | 0.9 | 7.0 | 0.00 | 0.00 | 0.00 | 61 | 1012.1 |
| 20260902063307 | 60 | 205 | 0.9 | 4.3 | 0.00 | 0.00 | 0.00 | 63 | 1012.2 |
| 20260902063303 | 60 | 222 | 0.9 | 5.2 | 0.00 | 0.00 | 0.00 | 62 | 1012.1 |
| 20260902062305 | 60 | 203 | 0.9 | 4.3 | 0.00 | 0.00 | 0.00 | 63 | 1012.3 |
| 20260902061804 | 60 | 193 | 1.7 | 7.0 | 0.00 | 0.00 | 0.00 | 64 | 1012.4 |
| 20260902061303 | 60 | 205 | 1.7 | 7.0 | 0.00 | 0.00 | 0.00 | 63 | 1012.4 |
| 20260902060802 | 60 | 207 | 1.7 | 7.0 | 0.00 | 0.00 | 0.00 | 65 | 1012.4 |
| 20260902060303 | 59 | 199 | 2.6 | 7.0 | 0.00 | 0.00 | 0.00 | 66 | 1012.6 |
| 20260902055801 | 59 | 205 | 2.6 | 7.0 | 0.00 | 0.00 | 0.00 | 66 | 1012.6 |
| 20260902055302 | 59 | 175 | 1.7 | 7.0 | 0.00 | 0.00 | 0.00 | 65 | 1012.6 |
| 20260902054932 | 60 | 199 | 1.7 | 7.0 | 0.00 | 0.00 | 0.00 | 62 | 1012.8 |
| 20260902054807 | 60 | 175 | 1.7 | 6.1 | 0.00 | 0.00 | 0.00 | 63 | 1012.7 |
| 20260902054801 | 60 | 192 | 1.7 | 6.1 | 0.00 | 0.00 | 0.00 | 64 | 1012.7 |
| 20260902053932 | 60 | 197 | 1.7 | 7.0 | 0.00 | 0.00 | 0.00 | 63 | 1012.8 |
| 20260902052803 | 60 | 211 | 1.7 | 5.2 | 0.00 | 0.00 | 0.00 | 64 | 1012.9 |
| 20260902052311 | 60 | 150 | 1.7 | 6.1 | 0.00 | 0.00 | 0.00 | 63 | 1012.9 |
| 20260902052306 | 60 | 194 | 1.7 | 6.1 | 0.00 | 0.00 | 0.00 | 63 | 1013.0 |
| 20260902051930 | 60 | 212 | 2.6 | 7.8 | 0.00 | 0.00 | 0.00 | 64 | 1013.0 |
| 20260902051302 | 60 | 198 | 1.7 | 7.8 | 0.00 | 0.00 | 0.00 | 65 | 1013.0 |
| 20260902050303 | 60 | 222 | 1.7 | 7.0 | 0.00 | 0.00 | 0.00 | 64 | 1013.1 |
| 20260902045801 | 60 | 203 | 2.6 | 7.8 | 0.00 | 0.00 | 0.00 | 64 | 1013.1 |
| 20260902045301 | 60 | 175 | 1.7 | 7.8 | 0.00 | 0.00 | 0.00 | 65 | 1013.1 |
| 20260902044300 | 59 | 175 | 2.6 | 8.7 | 0.00 | 0.00 | 0.00 | 64 | 1013.1 |
| 20260902043801 | 59 | 226 | 1.7 | 7.8 | 0.00 | 0.00 | 0.00 | 63 | 1013.2 |
| 20260902043306 | 59 | 190 | 2.6 | 8.7 | 0.00 | 0.00 | 0.00 | 64 | 1013.2 |
| 20260902043302 | 59 | 204 | 2.6 | 8.7 | 0.00 | 0.00 | 0.00 | 64 | 1013.2 |
| 20260902042926 | 59 | 194 | 2.6 | 7.8 | 0.00 | 0.00 | 0.00 | 66 | 1013.3 |
| 20260902042403 | 59 | 199 | 2.6 | 7.0 | 0.00 | 0.00 | 0.00 | 64 | 1013.3 |
| 20260902041303 | 59 | 251 | 2.6 | 8.7 | 0.00 | 0.00 | 0.00 | 65 | 1013.3 |
| 20260902041257 | 59 | 189 | 2.6 | 8.7 | 0.00 | 0.00 | 0.00 | 65 | 1013.2 |
| 20260902040925 | 59 | 191 | 2.6 | 8.7 | 0.00 | 0.00 | 0.00 | 65 | 1013.3 |
| 20260902040424 | 59 | 180 | 2.6 | 8.7 | 0.00 | 0.00 | 0.00 | 65 | 1013.3 |